| time (UTC) | temp F | wind direction | speed MPH | gust MPH | rain 1hr in | rain 24hr in | rain mn in | humidity % | barometer mb |
| 20260506015628 | 69 | 321 | 0.0 | 3.0 | 0.00 | 0.00 | 0.00 | 71 | 1008.3 |
| 20260506015125 | 69 | 45 | 2.0 | 5.0 | 0.00 | 0.00 | 0.00 | 71 | 1008.0 |
| 20260506014623 | 70 | 41 | 1.0 | 4.0 | 0.00 | 0.00 | 0.00 | 71 | 1008.1 |
| 20260506014118 | 70 | 26 | 4.0 | 4.0 | 0.00 | 0.00 | 0.00 | 71 | 1008.0 |
| 20260506013617 | 70 | 28 | 0.0 | 4.0 | 0.00 | 0.00 | 0.00 | 71 | 1007.5 |
| 20260506013113 | 71 | 36 | 1.0 | 3.0 | 0.00 | 0.00 | 0.00 | 71 | 1007.5 |
| 20260506012609 | 71 | 65 | 0.0 | 3.0 | 0.00 | 0.00 | 0.00 | 71 | 1007.6 |
| 20260506012106 | 71 | 58 | 0.0 | 2.0 | 0.00 | 0.00 | 0.00 | 70 | 1007.5 |
| 20260506011604 | 71 | 83 | 1.0 | 4.0 | 0.00 | 0.00 | 0.00 | 70 | 1007.5 |
| 20260506011100 | 71 | 13 | 0.0 | 2.0 | 0.00 | 0.00 | 0.00 | 69 | 1007.3 |
| 20260506010600 | 72 | 91 | 0.0 | 2.0 | 0.00 | 0.00 | 0.00 | 68 | 1007.2 |
| 20260506010056 | 72 | 27 | 0.0 | 4.0 | 0.00 | 0.00 | 0.00 | 68 | 1007.1 |
| 20260506005553 | 72 | 321 | 0.0 | 2.0 | 0.00 | 0.00 | 0.00 | 68 | 1007.7 |
| 20260506005049 | 72 | 36 | 0.0 | 2.0 | 0.00 | 0.00 | 0.00 | 68 | 1007.0 |
| 20260506004546 | 73 | 42 | 2.0 | 4.0 | 0.00 | 0.00 | 0.00 | 68 | 1006.5 |
| 20260506004043 | 73 | 35 | 2.0 | 4.0 | 0.00 | 0.00 | 0.00 | 67 | 1006.8 |
| 20260506003539 | 73 | 41 | 2.0 | 3.0 | 0.00 | 0.00 | 0.00 | 67 | 1006.7 |
| 20260506003036 | 73 | 23 | 0.0 | 2.0 | 0.00 | 0.00 | 0.00 | 67 | 1006.7 |
| 20260506002532 | 73 | 37 | 0.0 | 3.0 | 0.00 | 0.00 | 0.00 | 66 | 1006.4 |
| 20260506002027 | 73 | 51 | 1.0 | 3.0 | 0.00 | 0.00 | 0.00 | 65 | 1006.2 |
| 20260506001524 | 74 | 37 | 3.0 | 4.0 | 0.00 | 0.00 | 0.00 | 65 | 1006.4 |
| 20260506001021 | 74 | 89 | 0.0 | 4.0 | 0.00 | 0.00 | 0.00 | 65 | 1006.4 |
| 20260506000519 | 74 | 4 | 1.0 | 6.0 | 0.00 | 0.00 | 0.00 | 64 | 1006.3 |
| 20260506000016 | 75 | 292 | 0.0 | 6.0 | 0.00 | 0.00 | 0.00 | 64 | 1006.3 |
| 20260505235514 | 75 | 6 | 2.0 | 3.0 | 0.00 | 0.00 | 0.00 | 65 | 1006.6 |
| 20260505235010 | 76 | 33 | 1.0 | 6.0 | 0.00 | 0.00 | 0.00 | 63 | 1006.3 |
| 20260505234508 | 77 | 312 | 3.0 | 4.0 | 0.00 | 0.00 | 0.00 | 62 | 1006.1 |
| 20260505234004 | 77 | 6 | 1.0 | 5.0 | 0.00 | 0.00 | 0.00 | 62 | 1006.2 |
| 20260505233502 | 77 | 7 | 2.0 | 4.0 | 0.00 | 0.00 | 0.00 | 62 | 1006.3 |
| 20260505232959 | 78 | 15 | 2.0 | 4.0 | 0.00 | 0.00 | 0.00 | 61 | 1006.0 |
| 20260505232457 | 78 | 26 | 3.0 | 3.0 | 0.00 | 0.00 | 0.00 | 60 | 1005.9 |
| 20260505231954 | 79 | 347 | 1.0 | 4.0 | 0.00 | 0.00 | 0.00 | 60 | 1006.0 |
| 20260505231451 | 79 | 25 | 2.0 | 5.0 | 0.00 | 0.00 | 0.00 | 59 | 1006.0 |
| 20260505230949 | 80 | 356 | 2.0 | 4.0 | 0.00 | 0.00 | 0.00 | 58 | 1006.1 |
| 20260505230447 | 80 | 30 | 4.0 | 5.0 | 0.00 | 0.00 | 0.00 | 58 | 1005.9 |
| 20260505225943 | 81 | 8 | 2.0 | 3.0 | 0.00 | 0.00 | 0.00 | 57 | 1005.7 |
| 20260505225440 | 82 | 317 | 2.0 | 4.0 | 0.00 | 0.00 | 0.00 | 57 | 1005.6 |
| 20260505224936 | 83 | 311 | 4.0 | 4.0 | 0.00 | 0.00 | 0.00 | 56 | 1005.3 |
| 20260505224433 | 84 | 319 | 1.0 | 4.0 | 0.00 | 0.00 | 0.00 | 55 | 1005.2 |
| 20260505223930 | 85 | 306 | 0.0 | 2.0 | 0.00 | 0.00 | 0.00 | 51 | 1005.3 |
| 20260505223427 | 86 | 314 | 0.0 | 2.0 | 0.00 | 0.00 | 0.00 | 51 | 1005.2 |
| 20260505222923 | 87 | 342 | 0.0 | 1.0 | 0.00 | 0.00 | 0.00 | 49 | 1005.0 |
| 20260505222420 | 87 | 38 | 0.0 | 3.0 | 0.00 | 0.00 | 0.00 | 46 | 1004.9 |
| 20260505221916 | 87 | 269 | 0.0 | 2.0 | 0.00 | 0.00 | 0.00 | 47 | 1004.8 |
| 20260505221413 | 88 | 318 | 0.0 | 2.0 | 0.00 | 0.00 | 0.00 | 45 | 1004.8 |
| 20260505220910 | 89 | 10 | 2.0 | 3.0 | 0.00 | 0.00 | 0.00 | 45 | 1004.6 |
| 20260505220407 | 89 | 62 | 0.0 | 0.0 | 0.00 | 0.00 | 0.00 | 45 | 1004.6 |
| 20260505215905 | 89 | 269 | 0.0 | 1.0 | 0.00 | 0.00 | 0.00 | 44 | 1004.8 |
| 20260505215403 | 89 | 269 | 0.0 | 2.0 | 0.00 | 0.00 | 0.00 | 45 | 1004.8 |
| 20260505214900 | 89 | 16 | 2.0 | 3.0 | 0.00 | 0.00 | 0.00 | 43 | 1004.7 |
| 20260505214358 | 91 | 209 | 0.0 | 3.0 | 0.00 | 0.00 | 0.00 | 44 | 1004.9 |
| 20260505213855 | 91 | 288 | 2.0 | 2.0 | 0.00 | 0.00 | 0.00 | 49 | 1004.7 |
| 20260505213353 | 91 | 197 | 3.0 | 5.0 | 0.00 | 0.00 | 0.00 | 47 | 1004.6 |
| 20260505212848 | 92 | 237 | 2.0 | 5.0 | 0.00 | 0.00 | 0.00 | 47 | 1004.4 |
| 20260505212346 | 92 | 254 | 1.0 | 4.0 | 0.00 | 0.00 | 0.00 | 46 | 1004.8 |
| 20260505211841 | 92 | 89 | 0.0 | 5.0 | 0.00 | 0.00 | 0.00 | 47 | 1004.8 |
| 20260505211339 | 92 | 239 | 1.0 | 4.0 | 0.00 | 0.00 | 0.00 | 47 | 1004.9 |
| 20260505210836 | 92 | 243 | 1.0 | 6.0 | 0.00 | 0.00 | 0.00 | 46 | 1004.9 |
| 20260505210333 | 92 | 226 | 0.0 | 4.0 | 0.00 | 0.00 | 0.00 | 45 | 1005.0 |
| 20260505205829 | 92 | 308 | 0.0 | 3.0 | 0.00 | 0.00 | 0.00 | 48 | 1004.9 |
| 20260505205328 | 91 | 302 | 2.0 | 3.0 | 0.00 | 0.00 | 0.00 | 48 | 1005.1 |
| 20260505204824 | 91 | 232 | 1.0 | 5.0 | 0.00 | 0.00 | 0.00 | 48 | 1004.9 |
| 20260505204322 | 90 | 224 | 4.0 | 5.0 | 0.00 | 0.00 | 0.00 | 50 | 1005.1 |
| 20260505203819 | 90 | 202 | 5.0 | 5.0 | 0.00 | 0.00 | 0.00 | 51 | 1005.1 |
| 20260505203316 | 90 | 256 | 3.0 | 4.0 | 0.00 | 0.00 | 0.00 | 52 | 1005.2 |
| 20260505202812 | 89 | 245 | 3.0 | 8.0 | 0.00 | 0.00 | 0.00 | 53 | 1005.3 |
| 20260505202308 | 90 | 221 | 6.0 | 7.0 | 0.00 | 0.00 | 0.00 | 51 | 1005.4 |
| 20260505201805 | 89 | 209 | 5.0 | 8.0 | 0.00 | 0.00 | 0.00 | 52 | 1005.5 |
| 20260505201303 | 89 | 253 | 2.0 | 3.0 | 0.00 | 0.00 | 0.00 | 54 | 1005.4 |
| 20260505200801 | 89 | 238 | 4.0 | 11.0 | 0.00 | 0.00 | 0.00 | 53 | 1005.2 |
| 20260505200257 | 89 | 214 | 4.0 | 7.0 | 0.00 | 0.00 | 0.00 | 53 | 1005.5 |
| 20260505195752 | 89 | 217 | 4.0 | 6.0 | 0.00 | 0.00 | 0.00 | 54 | 1005.3 |
| 20260505195251 | 88 | 248 | 3.0 | 6.0 | 0.00 | 0.00 | 0.00 | 55 | 1005.6 |
| 20260505194747 | 88 | 228 | 3.0 | 6.0 | 0.00 | 0.00 | 0.00 | 55 | 1005.5 |
| 20260505194244 | 87 | 235 | 3.0 | 4.0 | 0.00 | 0.00 | 0.00 | 56 | 1005.5 |
| 20260505193739 | 87 | 229 | 5.0 | 10.0 | 0.00 | 0.00 | 0.00 | 56 | 1005.7 |
| 20260505193237 | 88 | 206 | 4.0 | 5.0 | 0.00 | 0.00 | 0.00 | 56 | 1005.7 |
| 20260505192736 | 88 | 269 | 2.0 | 6.0 | 0.00 | 0.00 | 0.00 | 56 | 1005.7 |
| 20260505192233 | 87 | 219 | 5.0 | 7.0 | 0.00 | 0.00 | 0.00 | 57 | 1005.2 |
| 20260505191731 | 87 | 221 | 1.0 | 6.0 | 0.00 | 0.00 | 0.00 | 58 | 1005.3 |
| 20260505191229 | 86 | 258 | 3.0 | 6.0 | 0.00 | 0.00 | 0.00 | 58 | 1005.6 |
| 20260505190725 | 86 | 201 | 3.0 | 6.0 | 0.00 | 0.00 | 0.00 | 59 | 1005.4 |
| 20260505190225 | 85 | 264 | 2.0 | 10.0 | 0.00 | 0.00 | 0.00 | 59 | 1005.5 |
| 20260505185722 | 85 | 212 | 4.0 | 7.0 | 0.00 | 0.00 | 0.00 | 61 | 1005.6 |
| 20260505185218 | 84 | 236 | 3.0 | 8.0 | 0.00 | 0.00 | 0.00 | 61 | 1005.4 |
| 20260505184714 | 84 | 240 | 2.0 | 11.0 | 0.00 | 0.00 | 0.00 | 61 | 1005.5 |
| 20260505184212 | 84 | 224 | 3.0 | 11.0 | 0.00 | 0.00 | 0.00 | 61 | 1005.7 |
| 20260505183708 | 85 | 203 | 5.0 | 5.0 | 0.00 | 0.00 | 0.00 | 60 | 1005.8 |
| 20260505183206 | 85 | 227 | 1.0 | 5.0 | 0.00 | 0.00 | 0.00 | 61 | 1005.7 |
| 20260505182702 | 84 | 250 | 2.0 | 8.0 | 0.00 | 0.00 | 0.00 | 60 | 1005.5 |
| 20260505182159 | 84 | 256 | 2.0 | 6.0 | 0.00 | 0.00 | 0.00 | 61 | 1005.5 |
| 20260505181656 | 84 | 228 | 2.0 | 6.0 | 0.00 | 0.00 | 0.00 | 61 | 1005.6 |
| 20260505181153 | 84 | 254 | 3.0 | 8.0 | 0.00 | 0.00 | 0.00 | 62 | 1005.6 |
| 20260505180649 | 84 | 227 | 4.0 | 5.0 | 0.00 | 0.00 | 0.00 | 62 | 1005.8 |
| 20260505180147 | 85 | 287 | 0.0 | 5.0 | 0.00 | 0.00 | 0.00 | 62 | 1005.7 |
| 20260505175642 | 84 | 255 | 1.0 | 10.0 | 0.00 | 0.00 | 0.00 | 63 | 1005.8 |
| 20260505175139 | 84 | 272 | 2.0 | 7.0 | 0.00 | 0.00 | 0.00 | 64 | 1005.5 |
| 20260505174636 | 83 | 222 | 1.0 | 6.0 | 0.00 | 0.00 | 0.00 | 65 | 1005.7 |
| 20260505174132 | 83 | 189 | 7.0 | 12.0 | 0.00 | 0.00 | 0.00 | 64 | 1005.5 |
| 20260505173629 | 82 | 220 | 4.0 | 13.0 | 0.00 | 0.00 | 0.00 | 64 | 1005.6 |
| 20260505173126 | 82 | 259 | 3.0 | 7.0 | 0.00 | 0.00 | 0.00 | 64 | 1005.7 |
| 20260505172623 | 82 | 213 | 5.0 | 9.0 | 0.00 | 0.00 | 0.00 | 65 | 1005.7 |
| 20260505172120 | 82 | 233 | 4.0 | 9.0 | 0.00 | 0.00 | 0.00 | 64 | 1005.6 |
| 20260505171614 | 82 | 213 | 3.0 | 6.0 | 0.00 | 0.00 | 0.00 | 67 | 1005.5 |
| 20260505171112 | 81 | 233 | 3.0 | 7.0 | 0.00 | 0.00 | 0.00 | 67 | 1005.8 |
| 20260505170609 | 81 | 229 | 4.0 | 9.0 | 0.00 | 0.00 | 0.00 | 67 | 1005.7 |
| 20260505170105 | 80 | 279 | 3.0 | 14.0 | 0.00 | 0.00 | 0.00 | 68 | 1005.6 |
| 20260505165600 | 81 | 290 | 2.0 | 5.0 | 0.00 | 0.00 | 0.00 | 68 | 1005.8 |
| 20260505165056 | 81 | 244 | 2.0 | 10.0 | 0.00 | 0.00 | 0.00 | 68 | 1005.8 |
| 20260505164552 | 80 | 216 | 4.0 | 7.0 | 0.00 | 0.00 | 0.00 | 68 | 1005.8 |
| 20260505164050 | 80 | 235 | 3.0 | 5.0 | 0.00 | 0.00 | 0.00 | 68 | 1005.8 |
| 20260505163548 | 80 | 215 | 2.0 | 6.0 | 0.00 | 0.00 | 0.00 | 70 | 1005.6 |
| 20260505163045 | 79 | 212 | 3.0 | 10.0 | 0.00 | 0.00 | 0.00 | 70 | 1005.5 |
| 20260505162543 | 79 | 210 | 3.0 | 9.0 | 0.00 | 0.00 | 0.00 | 71 | 1005.5 |
| 20260505162041 | 79 | 198 | 5.0 | 8.0 | 0.00 | 0.00 | 0.00 | 70 | 1005.6 |
| 20260505161537 | 79 | 233 | 2.0 | 9.0 | 0.00 | 0.00 | 0.00 | 70 | 1005.3 |
| 20260505161035 | 79 | 225 | 3.0 | 8.0 | 0.00 | 0.00 | 0.00 | 71 | 1005.3 |
| 20260505160532 | 79 | 296 | 1.0 | 13.0 | 0.00 | 0.00 | 0.00 | 71 | 1005.3 |
| 20260505153009 | 79 | 177 | 1.0 | 8.0 | 0.00 | 0.00 | 0.00 | 71 | 1005.3 |
| 20260505152506 | 79 | 207 | 10.0 | 11.0 | 0.00 | 0.00 | 0.00 | 70 | 1005.1 |
| 20260505152001 | 79 | 229 | 2.0 | 5.0 | 0.00 | 0.00 | 0.00 | 72 | 1005.1 |
| 20260505151457 | 77 | 204 | 2.0 | 12.0 | 0.00 | 0.00 | 0.00 | 74 | 1005.3 |
| 20260505150954 | 77 | 212 | 12.0 | 13.0 | 0.00 | 0.00 | 0.00 | 74 | 1005.6 |
| 20260505150452 | 76 | 249 | 3.0 | 8.0 | 0.00 | 0.00 | 0.00 | 76 | 1005.7 |
| 20260505140421 | 73 | 231 | 4.0 | 7.0 | 0.00 | 0.00 | 0.00 | 80 | 1005.4 |
| 20260505124834 | 71 | 179 | 1.0 | 6.0 | 0.00 | 0.00 | 0.00 | 84 | 1005.0 |
| 20260505124331 | 71 | 206 | 6.0 | 9.0 | 0.00 | 0.00 | 0.00 | 84 | 1005.0 |
| 20260505123827 | 71 | 204 | 4.0 | 10.0 | 0.00 | 0.00 | 0.00 | 84 | 1005.0 |
| 20260505123324 | 71 | 207 | 5.0 | 6.0 | 0.00 | 0.00 | 0.00 | 84 | 1004.9 |
| 20260505122820 | 71 | 173 | 1.0 | 5.0 | 0.00 | 0.00 | 0.00 | 84 | 1004.9 |
| 20260505122318 | 71 | 218 | 4.0 | 6.0 | 0.00 | 0.00 | 0.00 | 84 | 1004.7 |
| 20260505121814 | 71 | 217 | 2.0 | 10.0 | 0.00 | 0.00 | 0.00 | 84 | 1004.6 |
| 20260505121311 | 71 | 175 | 2.0 | 8.0 | 0.00 | 0.00 | 0.00 | 83 | 1004.8 |
| 20260505120808 | 71 | 200 | 4.0 | 10.0 | 0.00 | 0.00 | 0.00 | 83 | 1004.7 |
| 20260505120304 | 72 | 225 | 3.0 | 11.0 | 0.00 | 0.00 | 0.00 | 83 | 1004.6 |
| 20260505115802 | 72 | 219 | 6.0 | 13.0 | 0.00 | 0.00 | 0.00 | 83 | 1004.4 |
| 20260505115300 | 72 | 205 | 3.0 | 10.0 | 0.00 | 0.00 | 0.00 | 83 | 1004.5 |
| 20260505114757 | 72 | 213 | 5.0 | 9.0 | 0.00 | 0.00 | 0.00 | 82 | 1004.5 |
| 20260505114253 | 72 | 209 | 5.0 | 11.0 | 0.00 | 0.00 | 0.00 | 82 | 1004.4 |
| 20260505113750 | 72 | 213 | 9.0 | 12.0 | 0.00 | 0.00 | 0.00 | 82 | 1004.4 |
| 20260505113247 | 72 | 197 | 5.0 | 10.0 | 0.00 | 0.00 | 0.00 | 82 | 1004.5 |
| 20260505112743 | 72 | 215 | 4.0 | 8.0 | 0.00 | 0.00 | 0.00 | 82 | 1004.3 |
| 20260505112241 | 72 | 180 | 3.0 | 10.0 | 0.00 | 0.00 | 0.00 | 82 | 1004.3 |
| 20260505111740 | 72 | 206 | 5.0 | 11.0 | 0.00 | 0.00 | 0.00 | 82 | 1004.4 |
| 20260505111236 | 71 | 226 | 4.0 | 7.0 | 0.00 | 0.00 | 0.00 | 83 | 1004.3 |
| 20260505110732 | 71 | 199 | 6.0 | 11.0 | 0.00 | 0.00 | 0.00 | 83 | 1004.3 |
| 20260505110230 | 71 | 202 | 2.0 | 9.0 | 0.00 | 0.00 | 0.00 | 83 | 1004.1 |
| 20260505102205 | 72 | 210 | 3.0 | 8.0 | 0.00 | 0.00 | 0.00 | 82 | 1004.3 |
| 20260505101704 | 72 | 222 | 3.0 | 9.0 | 0.00 | 0.00 | 0.00 | 82 | 1004.5 |
| 20260505101200 | 72 | 226 | 3.0 | 9.0 | 0.00 | 0.00 | 0.00 | 82 | 1004.3 |
| 20260505100656 | 72 | 227 | 5.0 | 9.0 | 0.00 | 0.00 | 0.00 | 82 | 1004.4 |
| 20260505100153 | 72 | 227 | 5.0 | 10.0 | 0.00 | 0.00 | 0.00 | 82 | 1004.5 |
| 20260505095649 | 72 | 214 | 6.0 | 12.0 | 0.00 | 0.00 | 0.00 | 82 | 1004.3 |
| 20260505095147 | 72 | 210 | 4.0 | 8.0 | 0.00 | 0.00 | 0.00 | 82 | 1004.5 |
| 20260505094642 | 72 | 148 | 0.0 | 9.0 | 0.00 | 0.00 | 0.00 | 82 | 1004.4 |
| 20260505094139 | 72 | 255 | 2.0 | 6.0 | 0.00 | 0.00 | 0.00 | 82 | 1004.5 |
| 20260505093635 | 72 | 127 | 1.0 | 6.0 | 0.00 | 0.00 | 0.00 | 82 | 1004.4 |
| 20260505093133 | 72 | 207 | 0.0 | 11.0 | 0.00 | 0.00 | 0.00 | 81 | 1004.5 |
| 20260505092630 | 72 | 122 | 2.0 | 9.0 | 0.00 | 0.00 | 0.00 | 81 | 1004.8 |
| 20260505092129 | 72 | 199 | 3.0 | 10.0 | 0.00 | 0.00 | 0.00 | 81 | 1004.8 |
| 20260505091625 | 72 | 107 | 1.0 | 7.0 | 0.00 | 0.00 | 0.00 | 81 | 1004.7 |
| 20260505091123 | 72 | 210 | 8.0 | 9.0 | 0.00 | 0.00 | 0.00 | 82 | 1004.9 |
| 20260505090620 | 72 | 200 | 7.0 | 8.0 | 0.00 | 0.00 | 0.00 | 81 | 1004.7 |
| 20260505090119 | 72 | 227 | 4.0 | 6.0 | 0.00 | 0.00 | 0.00 | 81 | 1005.0 |
| 20260505085616 | 72 | 214 | 3.0 | 14.0 | 0.00 | 0.00 | 0.00 | 81 | 1004.9 |
| 20260505085114 | 72 | 39 | 0.0 | 8.0 | 0.00 | 0.00 | 0.00 | 81 | 1004.8 |
| 20260505084611 | 72 | 218 | 2.0 | 11.0 | 0.00 | 0.00 | 0.00 | 81 | 1004.9 |
| 20260505084110 | 72 | 229 | 4.0 | 10.0 | 0.00 | 0.00 | 0.00 | 80 | 1004.9 |
| 20260505083607 | 72 | 105 | 3.0 | 9.0 | 0.00 | 0.00 | 0.00 | 80 | 1005.1 |
| 20260505083103 | 72 | 230 | 2.0 | 9.0 | 0.00 | 0.00 | 0.00 | 80 | 1004.8 |
| 20260505082559 | 72 | 216 | 2.0 | 10.0 | 0.00 | 0.00 | 0.00 | 80 | 1005.0 |
| 20260505082056 | 72 | 189 | 2.0 | 10.0 | 0.00 | 0.00 | 0.00 | 80 | 1004.9 |
| 20260505081552 | 73 | 205 | 5.0 | 7.0 | 0.00 | 0.00 | 0.00 | 79 | 1005.0 |
| 20260505081050 | 73 | 184 | 2.0 | 5.0 | 0.00 | 0.00 | 0.00 | 79 | 1004.9 |
| 20260505080545 | 73 | 152 | 2.0 | 11.0 | 0.00 | 0.00 | 0.00 | 79 | 1004.9 |
| 20260505080043 | 73 | 222 | 3.0 | 9.0 | 0.00 | 0.00 | 0.00 | 78 | 1005.1 |
| 20260505075538 | 73 | 189 | 3.0 | 8.0 | 0.00 | 0.00 | 0.00 | 78 | 1005.2 |
| 20260505075035 | 73 | 206 | 8.0 | 11.0 | 0.00 | 0.00 | 0.00 | 78 | 1005.0 |
| 20260505074532 | 73 | 223 | 3.0 | 6.0 | 0.00 | 0.00 | 0.00 | 77 | 1005.2 |
| 20260505074030 | 73 | 244 | 3.0 | 9.0 | 0.00 | 0.00 | 0.00 | 77 | 1005.2 |
| 20260505073527 | 73 | 222 | 1.0 | 9.0 | 0.00 | 0.00 | 0.00 | 77 | 1005.3 |
| 20260505073025 | 73 | 189 | 2.0 | 9.0 | 0.00 | 0.00 | 0.00 | 76 | 1005.5 |
| 20260505072520 | 73 | 186 | 3.0 | 11.0 | 0.00 | 0.00 | 0.00 | 76 | 1005.6 |
| 20260505072017 | 73 | 205 | 2.0 | 6.0 | 0.00 | 0.00 | 0.00 | 75 | 1005.7 |
| 20260505071512 | 74 | 181 | 2.0 | 7.0 | 0.00 | 0.00 | 0.00 | 75 | 1005.7 |
| 20260505071011 | 74 | 231 | 3.0 | 11.0 | 0.00 | 0.00 | 0.00 | 75 | 1005.4 |
| 20260505070508 | 74 | 210 | 6.0 | 11.0 | 0.00 | 0.00 | 0.00 | 74 | 1005.9 |
| 20260505070004 | 74 | 217 | 4.0 | 11.0 | 0.00 | 0.00 | 0.00 | 74 | 1005.8 |
| 20260505065500 | 74 | 232 | 3.0 | 10.0 | 0.00 | 0.00 | 0.00 | 73 | 1005.9 |
| 20260505064956 | 74 | 209 | 7.0 | 11.0 | 0.00 | 0.00 | 0.00 | 73 | 1005.9 |
| 20260505064453 | 74 | 242 | 2.0 | 15.0 | 0.00 | 0.00 | 0.00 | 72 | 1006.2 |
| 20260505063952 | 74 | 218 | 4.0 | 12.0 | 0.00 | 0.00 | 0.00 | 72 | 1006.1 |
| 20260505063448 | 74 | 190 | 3.0 | 9.0 | 0.00 | 0.00 | 0.00 | 72 | 1006.1 |
| 20260505062944 | 74 | 264 | 3.0 | 6.0 | 0.00 | 0.00 | 0.00 | 72 | 1006.1 |
| 20260505062442 | 75 | 196 | 5.0 | 8.0 | 0.00 | 0.00 | 0.00 | 71 | 1006.2 |
| 20260505061938 | 75 | 202 | 2.0 | 9.0 | 0.00 | 0.00 | 0.00 | 71 | 1006.2 |
| 20260505061437 | 75 | 220 | 2.0 | 8.0 | 0.00 | 0.00 | 0.00 | 71 | 1006.1 |
| 20260505060934 | 75 | 209 | 6.0 | 9.0 | 0.00 | 0.00 | 0.00 | 70 | 1006.1 |
| 20260505060431 | 75 | 222 | 5.0 | 6.0 | 0.00 | 0.00 | 0.00 | 70 | 1006.2 |
| 20260505055927 | 75 | 141 | 2.0 | 10.0 | 0.00 | 0.00 | 0.00 | 70 | 1006.3 |
| 20260505055423 | 75 | 172 | 2.0 | 9.0 | 0.00 | 0.00 | 0.00 | 70 | 1006.0 |
| 20260505054920 | 75 | 213 | 5.0 | 10.0 | 0.00 | 0.00 | 0.00 | 70 | 1006.2 |
| 20260505054418 | 75 | 202 | 6.0 | 10.0 | 0.00 | 0.00 | 0.00 | 70 | 1006.4 |
| 20260505053916 | 75 | 188 | 4.0 | 11.0 | 0.00 | 0.00 | 0.00 | 70 | 1006.3 |
| 20260505053412 | 75 | 135 | 2.0 | 6.0 | 0.00 | 0.00 | 0.00 | 70 | 1006.3 |
| 20260505052909 | 75 | 150 | 2.0 | 5.0 | 0.00 | 0.00 | 0.00 | 70 | 1006.2 |
| 20260505052406 | 75 | 179 | 2.0 | 9.0 | 0.00 | 0.00 | 0.00 | 69 | 1006.5 |
| 20260505051903 | 75 | 197 | 4.0 | 6.0 | 0.00 | 0.00 | 0.00 | 69 | 1006.6 |
| 20260505051400 | 75 | 244 | 2.0 | 6.0 | 0.00 | 0.00 | 0.00 | 69 | 1006.6 |
| 20260505050858 | 75 | 203 | 3.0 | 5.0 | 0.00 | 0.00 | 0.00 | 69 | 1006.7 |
| 20260505050356 | 75 | 242 | 4.0 | 7.0 | 0.00 | 0.00 | 0.00 | 69 | 1006.6 |
| 20260505041324 | 76 | 180 | 2.0 | 9.0 | 0.00 | 0.00 | 0.00 | 67 | 1006.6 |
| 20260505040821 | 76 | 88 | 1.0 | 6.0 | 0.00 | 0.00 | 0.00 | 67 | 1006.6 |
| 20260505040319 | 76 | 97 | 2.0 | 8.0 | 0.00 | 0.00 | 0.00 | 67 | 1006.7 |
| 20260505035815 | 76 | 127 | 2.0 | 6.0 | 0.00 | 0.00 | 0.00 | 66 | 1006.6 |
| 20260505035311 | 76 | 242 | 5.0 | 10.0 | 0.00 | 0.00 | 0.00 | 67 | 1006.6 |
| 20260505034809 | 76 | 230 | 2.0 | 14.0 | 0.00 | 0.00 | 0.00 | 66 | 1006.6 |
| 20260505034305 | 76 | 188 | 4.0 | 9.0 | 0.00 | 0.00 | 0.00 | 66 | 1006.5 |
| 20260505033802 | 76 | 221 | 1.0 | 6.0 | 0.00 | 0.00 | 0.00 | 66 | 1006.6 |
| 20260505033259 | 76 | 198 | 2.0 | 10.0 | 0.00 | 0.00 | 0.00 | 66 | 1006.6 |
| 20260505032757 | 76 | 188 | 2.0 | 6.0 | 0.00 | 0.00 | 0.00 | 66 | 1006.7 |
| 20260505032253 | 76 | 216 | 6.0 | 10.0 | 0.00 | 0.00 | 0.00 | 66 | 1006.6 |
| 20260505031750 | 76 | 200 | 2.0 | 10.0 | 0.00 | 0.00 | 0.00 | 66 | 1007.0 |
| 20260505031246 | 76 | 132 | 3.0 | 6.0 | 0.00 | 0.00 | 0.00 | 66 | 1006.8 |
| 20260505030744 | 76 | 170 | 2.0 | 8.0 | 0.00 | 0.00 | 0.00 | 65 | 1006.8 |
| 20260505030240 | 76 | 193 | 0.0 | 6.0 | 0.00 | 0.00 | 0.00 | 65 | 1006.7 |
| 20260505025735 | 76 | 189 | 3.0 | 8.0 | 0.00 | 0.00 | 0.00 | 65 | 1006.6 |
| 20260505025234 | 76 | 160 | 3.0 | 11.0 | 0.00 | 0.00 | 0.00 | 65 | 1006.6 |
| 20260505024732 | 76 | 188 | 3.0 | 4.0 | 0.00 | 0.00 | 0.00 | 65 | 1006.7 |
| 20260505024229 | 76 | 191 | 1.0 | 10.0 | 0.00 | 0.00 | 0.00 | 65 | 1006.7 |
| 20260505023726 | 76 | 171 | 4.0 | 6.0 | 0.00 | 0.00 | 0.00 | 65 | 1006.6 |
| 20260505023223 | 76 | 230 | 4.0 | 5.0 | 0.00 | 0.00 | 0.00 | 65 | 1006.7 |
| 20260505022721 | 76 | 180 | 2.0 | 6.0 | 0.00 | 0.00 | 0.00 | 65 | 1006.6 |
| 20260505022217 | 76 | 119 | 2.0 | 5.0 | 0.00 | 0.00 | 0.00 | 64 | 1006.7 |
| 20260505021714 | 76 | 135 | 0.0 | 10.0 | 0.00 | 0.00 | 0.00 | 64 | 1006.6 |
| 20260505021211 | 76 | 204 | 5.0 | 7.0 | 0.00 | 0.00 | 0.00 | 64 | 1006.7 |
| 20260505020707 | 76 | 262 | 1.0 | 6.0 | 0.00 | 0.00 | 0.00 | 64 | 1006.5 |
| 20260505020202 | 76 | 204 | 5.0 | 9.0 | 0.00 | 0.00 | 0.00 | 64 | 1006.4 |